Weather History for McMinnville, OR

Change the Weather History Date:

Saturday, December 15, 2012

  Actual Average Record
Temperature  
Mean Temperature 37 °F 39 °F  
Max Temperature 41 °F 45 °F 65 °F (1930)
Min Temperature 32 °F 34 °F 2 °F (1919)
Degree Days  
Heating Degree Days 28 26  
Month to date heating degree days 304 368  
Since 1 July heating degree days 1247 1590  
Cooling Degree Days 0 0  
Month to date cooling degree days 0 0  
Year to date cooling degree days 300 215  
Moisture  
Dew Point 33 °F    
Average Humidity 93    
Maximum Humidity 100    
Minimum Humidity 85    
Precipitation  
Precipitation 0.29 in 0.20 in 2.82 in (1977)
Month to date precipitation 3.63 2.90  
Year to date precipitation 45.35 36.55  
Snow  
Snow 0.00 in - - ()
Month to date snowfall 0.0  
Snow Depth 0.00 in    
Sea Level Pressure  
Sea Level Pressure 29.83 in    
Wind  
Wind Speed 6 mph (South)    
Max Wind Speed 21 mph    
Max Gust Speed 26 mph    
Visibility 6 miles    
Events Fog , Rain    
T = Trace of Precipitation, MM = Missing Value Source: NWS Daily Summary

Daily Weather History Graph

Daily Weather History Graph

Search for Another Location

Airport:

Trip Planner

Search our weather history database for the weather conditions in past years. The results will help you decide how hot, cold, wet, or windy it might be!

Date:

Astronomy

Dec. 15, 2012 Rise Set
Actual Time 7:45 AM PST 4:30 PM PST
Civil Twilight 7:11 AM PST 5:04 PM PST
Nautical Twilight 6:33 AM PST 5:42 PM PST
Astronomical Twilight 5:57 AM PST 6:18 PM PST
Moon 9:36 AM PST (12/15) 7:48 PM PST (12/15)
Length of Visible Light 9h 53m
Length of Day
8h 45m
Waxing Crescent, 9% of the Moon is Illuminated
Dec 15
Waxing Crescent
Dec 19
First Quarter
Dec 28
Full
Jan 4
Last Quarter
Jan 11
New

Hourly Weather History & Observations

Time (PST) Temp. Windchill Dew Point Humidity Pressure Visibility Wind Dir Wind Speed Gust Speed Precip Events Conditions
12:06 AM 33.8 °F - 32.0 °F 93% 29.95 in 0.5 mi Calm Calm - N/A Fog Fog
12:28 AM 33.8 °F - 32.0 °F 93% 29.95 in 0.5 mi Calm Calm - N/A Fog Fog
12:48 AM 33.8 °F - 32.0 °F 93% 29.94 in 0.2 mi Calm Calm - N/A Fog Fog
12:53 AM 35.1 °F - 33.1 °F 92% 29.94 in 0.2 mi Calm Calm - N/A Fog Fog
1:53 AM 34.0 °F - 33.1 °F 96% 29.93 in 0.2 mi Calm Calm - N/A Fog Fog
2:30 AM 33.8 °F - 32.0 °F 93% 29.92 in 0.8 mi Calm Calm - N/A   Mostly Cloudy
2:39 AM 33.8 °F - 30.2 °F 87% 29.91 in 0.8 mi Calm Calm - N/A   Scattered Clouds
2:49 AM 33.8 °F - 30.2 °F 87% 29.91 in 0.8 mi Calm Calm - N/A   Mist
2:53 AM 33.1 °F - 30.9 °F 92% 29.92 in 0.8 mi Calm Calm - N/A   Mist
2:55 AM 33.8 °F - 30.2 °F 87% 29.91 in 1.0 mi Calm Calm - N/A   Clear
3:09 AM 33.8 °F - 30.2 °F 87% 29.91 in 1.0 mi Calm Calm - N/A   Mist
3:27 AM 33.8 °F - 30.2 °F 87% 29.91 in 0.8 mi Calm Calm - N/A   Scattered Clouds
3:31 AM 33.8 °F - 30.2 °F 87% 29.91 in 0.8 mi Calm Calm - N/A   Mostly Cloudy
3:53 AM 33.1 °F - 30.9 °F 92% 29.90 in 0.5 mi Calm Calm - N/A Fog Fog
4:07 AM 33.8 °F - 30.2 °F 87% 29.89 in 0.5 mi Calm Calm - N/A Fog Fog
4:41 AM 33.8 °F - 30.2 °F 87% 29.88 in 1.0 mi Calm Calm - N/A   Mist
4:53 AM 33.1 °F 28.7 °F 30.9 °F 92% 29.88 in 2.5 mi East 4.6 mph - N/A   Overcast
5:00 AM 33.8 °F 28.6 °F 30.2 °F 87% 29.87 in 1.8 mi ESE 5.8 mph - N/A   Overcast
5:04 AM 33.8 °F 28.6 °F 30.2 °F 87% 29.87 in 2.0 mi East 5.8 mph - N/A   Overcast
5:16 AM 33.8 °F 27.0 °F 30.2 °F 87% 29.86 in 3.0 mi ESE 8.1 mph - N/A   Overcast
6:18 AM 33.8 °F - 32.0 °F 93% 29.85 in 8.0 mi Calm Calm - N/A   Overcast
6:53 AM 35.1 °F - 32.0 °F 89% 29.85 in 10.0 mi Calm Calm - N/A   Overcast
7:53 AM 37.0 °F 32.4 °F 33.1 °F 86% 29.83 in 8.0 mi ESE 5.8 mph - 0.01 in Rain Light Rain
8:29 AM 37.4 °F 30.8 °F 33.8 °F 87% 29.82 in 10.0 mi SSE 9.2 mph - 0.01 in Rain Light Rain
8:53 AM 37.9 °F 30.9 °F 34.0 °F 86% 29.83 in 10.0 mi SSE 10.4 mph - 0.02 in Rain Light Rain
9:53 AM 37.9 °F 30.0 °F 34.0 °F 86% 29.81 in 10.0 mi SSE 12.7 mph - 0.03 in Rain Light Rain
10:45 AM 37.4 °F 29.3 °F 33.8 °F 87% 29.78 in 10.0 mi South 12.7 mph 19.6 mph 0.01 in Rain Light Rain
10:53 AM 37.0 °F 28.5 °F 34.0 °F 89% 29.78 in 10.0 mi South 13.8 mph - 0.01 in Rain Light Rain
11:04 AM 37.4 °F 29.8 °F 33.8 °F 87% 29.77 in 10.0 mi South 11.5 mph - 0.00 in Rain Light Rain
11:53 AM 37.9 °F 29.2 °F 35.1 °F 89% 29.74 in 10.0 mi SSE 15.0 mph - 0.01 in Rain Light Rain
12:53 PM 37.9 °F 30.9 °F 36.0 °F 93% 29.70 in 10.0 mi SSE 10.4 mph - 0.00 in Rain Light Rain
1:53 PM 41.0 °F 32.8 °F 37.9 °F 89% 29.65 in 10.0 mi South 16.1 mph 24.2 mph 0.02 in Rain Light Rain
2:53 PM 41.0 °F 36.4 °F 37.0 °F 86% 29.65 in 8.0 mi SW 6.9 mph - 0.01 in Rain Light Rain
3:53 PM 39.9 °F 32.5 °F 36.0 °F 86% 29.67 in 9.0 mi SW 12.7 mph - 0.08 in Rain Light Rain
4:53 PM 39.9 °F 37.8 °F 36.0 °F 86% 29.69 in 10.0 mi WSW 3.5 mph - 0.01 in   Overcast
5:53 PM 39.0 °F 35.7 °F 36.0 °F 89% 29.71 in 10.0 mi SW 4.6 mph - 0.00 in   Mostly Cloudy
6:53 PM 39.0 °F 36.8 °F 36.0 °F 89% 29.74 in 6.0 mi NW 3.5 mph - 0.01 in Rain Rain
7:00 PM 39.2 °F 37.0 °F 35.6 °F 87% 29.74 in 3.0 mi WSW 3.5 mph - 0.02 in Rain Rain
7:53 PM 39.0 °F 32.3 °F 37.0 °F 93% 29.77 in 10.0 mi SSW 10.4 mph - 0.06 in   Mostly Cloudy
8:53 PM 39.0 °F - 39.0 °F 100% 29.81 in 10.0 mi Calm Calm - 0.01 in Rain Light Rain
9:53 PM 36.0 °F 32.1 °F 35.1 °F 97% 29.83 in 10.0 mi SW 4.6 mph - 0.00 in   Mostly Cloudy
10:08 PM 39.2 °F - 35.6 °F 87% 29.83 in 10.0 mi Calm Calm - N/A   Overcast
10:17 PM 39.2 °F 35.9 °F 35.6 °F 87% 29.83 in 10.0 mi NW 4.6 mph - N/A   Overcast
10:53 PM 36.0 °F 33.3 °F 34.0 °F 93% 29.84 in 10.0 mi South 3.5 mph - N/A   Overcast
11:53 PM 36.0 °F 32.1 °F 34.0 °F 93% 29.85 in 10.0 mi South 4.6 mph - 0.01 in   Partly Cloudy